[[{"header":{"parameterUnit":"m.s-1","parameterCategory":1,"la1":30.2991,"la2":30.254,"lo1":-89.0895,"lo2":-89.0444,"dy":0.0017,"dx":0.0017,"nx":28,"ny":28,"refTime":"2024-06-02T09:00:00:Z","depth":0,"parameterNumber":2,"parameterNumberName":"U-component_of_WINDS"},"data":[0,0,0,0,0,0,0,0,0,0,0,0,0,0,0,0,0,0,0,0,0,0,0,0,0,0,0,0,0,0,0,0,0,0,0,0,0,0,0,0,0,0,0,0,0,0,0,0,0,0,0,0,0,0,0,0,0,0,-1.1998,-1.1997,0,-1.1907,-1.1906,-1.1904,-1.1846,-1.1846,-1.1846,-1.1845,-1.1751,-1.1749,-1.1747,0,0,0,0,0,0,0,0,0,0,0,0,0,-1.2124,-1.2122,-1.1998,-1.1997,-1.1996,-1.1907,-1.1905,-1.1904,-1.1846,-1.1846,-1.1846,-1.1845,-1.1752,-1.1749,-1.1747,0,0,0,0,0,0,0,0,0,0,0,0,0,-1.2055,-1.2122,-1.1999,-1.1957,-1.1952,-1.1907,-1.1905,-1.1904,-1.1847,-1.1846,-1.1846,-1.1845,-1.1753,-1.175,-1.1747,-1.1736,0,0,-1.1736,-1.1735,0,0,0,0,0,0,0,0,-1.2059,-1.205,-1.1964,-1.1959,-1.1954,-1.1887,-1.1915,-1.1848,-1.1847,-1.1887,-1.1845,-1.1845,-1.1797,-1.179,-1.1774,-1.1732,-1.1728,-1.1736,-1.1734,-1.1733,-1.1732,0,0,0,0,0,0,0,-1.2064,-1.2054,-1.1962,-1.1963,-1.1957,-1.1942,-1.1932,-1.1902,-1.1846,-1.1883,-1.1879,-1.1869,-1.1794,-1.1777,-1.1771,-1.1726,-1.1736,-1.1733,-1.1731,-1.173,-1.1671,-1.1672,0,0,0,0,0,0,-1.2075,-1.2058,-1.1965,-1.1959,-1.2006,-1.1941,-1.1929,-1.1909,-1.1846,-1.1836,-1.1869,-1.1866,-1.1783,-1.1775,-1.1768,-1.1752,-1.1733,-1.173,-1.1728,-1.1671,-1.1672,-1.1672,0,0,0,0,0,0,-1.2078,-1.2067,-1.1969,-1.2008,-1.1994,-1.1939,-1.1917,-1.1908,-1.1891,-1.1835,-1.1825,-1.1862,-1.1782,-1.1772,-1.1745,-1.1748,-1.1728,-1.1725,-1.1671,-1.1671,-1.1672,-1.1719,0,0,0,0,0,0,-1.2082,-1.2069,-1.2064,-1.2008,-1.1992,-1.1947,-1.1918,-1.1906,-1.1885,-1.1881,-1.1826,-1.1817,-1.1781,-1.175,-1.1741,-1.1743,-1.1723,-1.167,-1.1671,-1.1672,-1.1717,-1.1722,-1.1725,0,0,0,0,0,-1.2087,-1.2081,-1.2064,-1.2053,-1.1985,-1.1947,-1.1938,-1.1898,-1.1886,-1.1881,-1.1845,-1.1818,-1.1749,-1.1747,-1.1737,-1.1738,-1.167,-1.1671,-1.1672,-1.1716,-1.1721,-1.1725,0,0,0,0,0,0,-1.214,-1.2073,-1.2054,-1.203,-1.1995,-1.1938,-1.193,-1.1905,-1.1872,-1.1869,-1.1821,-1.1809,-1.1786,-1.1759,-1.1759,-1.1725,-1.1706,-1.1705,-1.1743,-1.1747,-1.1751,-1.1758,-1.172,0,0,0,0,0,-1.2149,-1.2123,-1.2067,-1.2051,-1.2035,-1.1986,-1.1968,-1.194,-1.1901,-1.1886,-1.1848,-1.1812,-1.1782,-1.1763,-1.1733,-1.1713,-1.1701,-1.1709,-1.1713,-1.1716,-1.1716,-1.1704,-1.1707,-1.1675,-1.1675,-1.1675,0,0,-1.2167,-1.2127,-1.2114,-1.2061,-1.203,-1.2005,-1.1973,-1.1948,-1.1929,-1.1882,-1.1853,-1.1825,-1.1781,-1.1758,-1.1745,-1.1735,-1.1722,-1.1717,-1.1721,-1.1718,-1.1705,-1.1708,-1.1711,-1.1676,-1.1676,-1.1676,0,0,-1.2187,-1.2155,-1.2138,-1.2108,-1.2062,-1.203,-1.2026,-1.1973,-1.1952,-1.1923,-1.1887,-1.1863,-1.1813,-1.1783,-1.1761,-1.1771,-1.1745,-1.1762,-1.1783,-1.1772,-1.1774,-1.1776,-1.1779,-1.1781,-1.1762,-1.1762,-1.1762,0,-1.2215,-1.2176,-1.2133,-1.211,-1.2088,-1.2044,-1.2027,-1.2,-1.1947,-1.1932,-1.1921,-1.1856,-1.1824,-1.1793,-1.1795,-1.1779,-1.1773,-1.1768,-1.1777,-1.1779,-1.178,-1.1783,-1.1784,-1.1765,-1.1764,-1.1764,-1.1764,0,-1.2213,-1.2187,-1.2179,-1.2128,-1.2105,-1.2086,-1.204,-1.2021,-1.1995,-1.1964,-1.1935,-1.1894,-1.1855,-1.1845,-1.182,-1.1811,-1.1806,-1.1787,-1.1767,-1.1786,-1.1788,-1.1788,-1.1768,-1.1767,-1.1767,-1.1766,0,0,-1.2265,-1.219,-1.2188,-1.2165,-1.2111,-1.209,-1.2068,-1.2029,-1.2014,-1.1979,-1.196,-1.1918,-1.19,-1.1876,-1.1846,-1.1837,-1.1847,-1.1819,-1.1817,-1.1825,-1.1834,-1.1849,-1.1851,-1.1829,-1.1829,-1.1829,-1.1838,0,-1.2277,-1.2235,-1.2196,-1.2169,-1.2144,-1.2102,-1.2083,-1.2048,-1.2019,-1.1993,-1.196,-1.1931,-1.191,-1.1895,-1.1883,-1.1848,-1.1848,-1.1847,-1.1811,-1.181,-1.1823,-1.1852,-1.1867,-1.1877,-1.1838,-1.1838,-1.1838,0,-1.2286,-1.2252,-1.2223,-1.2171,-1.2159,-1.2143,-1.2104,-1.208,-1.204,-1.2019,-1.1992,-1.1961,-1.1936,-1.192,-1.1885,-1.1885,-1.1868,-1.1849,-1.1848,-1.1843,-1.1825,-1.1847,-1.1879,-1.1881,-1.1839,-1.1839,-1.1839,0,-1.2326,-1.2274,-1.2249,-1.223,-1.217,-1.2159,-1.2133,-1.2093,-1.2072,-1.2038,-1.2024,-1.1988,-1.1968,-1.1941,-1.1902,-1.1893,-1.1871,-1.1851,-1.1853,-1.1854,-1.185,-1.1851,-1.188,-1.1839,-1.1839,-1.1839,-1.1839,0,-1.2344,-1.2328,-1.2266,-1.2251,-1.2232,-1.2186,-1.2168,-1.2139,-1.2103,-1.2082,-1.2043,-1.2024,-1.1973,-1.1947,-1.1916,-1.1892,-1.1883,-1.1866,-1.1858,-1.1869,-1.1872,-1.1857,-1.1856,-1.184,-1.184,-1.184,-1.184,0,-1.2386,-1.2344,-1.2315,-1.226,-1.2245,-1.2233,-1.2186,-1.217,-1.2138,-1.2112,-1.2103,-1.2053,-1.2021,-1.1979,-1.1934,-1.1913,-1.1893,-1.188,-1.1907,-1.1902,-1.1906,-1.1906,-1.1927,-1.1927,-1.1887,-1.1888,-1.1888,0,-1.2401,-1.2387,-1.233,-1.2313,-1.2288,-1.2261,-1.224,-1.2195,-1.2174,-1.2127,-1.2117,-1.2082,-1.2052,-1.2003,-1.1963,-1.1928,-1.1914,-1.1924,-1.1909,-1.1921,-1.1914,-1.1916,-1.1914,-1.1928,-1.1928,-1.1929,-1.1929,0,-1.2431,-1.241,-1.2381,-1.2344,-1.2319,-1.2288,-1.2255,-1.2244,-1.2192,-1.2171,-1.2137,-1.2114,-1.2068,-1.2034,-1.1994,-1.1968,-1.194,-1.1934,-1.1933,-1.1945,-1.196,-1.1952,-1.1917,-1.1934,-1.1933,-1.1933,-1.1933,-1.1933,-1.2459,-1.2445,-1.2403,-1.2371,-1.2342,-1.2312,-1.2294,-1.226,-1.2231,-1.219,-1.2165,-1.2133,-1.2093,-1.2037,-1.2011,-1.1986,-1.1975,-1.1973,-1.1972,-1.1973,-1.1977,-1.1965,-1.1978,-1.1978,-1.1978,-1.1978,-1.1978,0,-1.2487,-1.2458,-1.2429,-1.2384,-1.2359,-1.2335,-1.2298,-1.2278,-1.2251,-1.2215,-1.2186,-1.2148,-1.2115,-1.2072,-1.2036,-1.2024,-1.201,-1.2016,-1.2016,-1.2011,-1.1988,-1.1993,-1.2028,-1.2027,-1.2027,-1.2027,-1.2027,-1.2027,-1.2499,-1.2474,-1.2449,-1.2409,-1.2379,-1.2347,-1.2328,-1.23,-1.2272,-1.2231,-1.2203,-1.2175,-1.2137,-1.2098,-1.2066,-1.2054,-1.2043,-1.2052,-1.2037,-1.2017,-1.2012,-1.2008,-1.2012,-1.205,-1.205,-1.2061,-1.2062,-1.2062]},{"header":{"parameterUnit":"m.s-1","parameterCategory":1,"la1":30.2991,"la2":30.254,"lo1":-89.0895,"lo2":-89.0444,"dy":0.0017,"dx":0.0017,"nx":28,"ny":28,"refTime":"2024-06-02T09:00:00:Z","depth":0,"parameterNumber":3,"parameterNumberName":"V-component_of_WINDS"},"data":[0,0,0,0,0,0,0,0,0,0,0,0,0,0,0,0,0,0,0,0,0,0,0,0,0,0,0,0,0,0,0,0,0,0,0,0,0,0,0,0,0,0,0,0,0,0,0,0,0,0,0,0,0,0,0,0,0,0,4.5924,4.5925,0,4.5938,4.5938,4.5938,4.589,4.5888,4.5887,4.5886,4.5897,4.5899,4.59,0,0,0,0,0,0,0,0,0,0,0,0,0,4.5856,4.5857,4.5924,4.5925,4.5925,4.5937,4.5938,4.5938,4.589,4.5888,4.5887,4.5885,4.5896,4.5898,4.59,0,0,0,0,0,0,0,0,0,0,0,0,0,4.5879,4.5858,4.5924,4.5902,4.5901,4.5937,4.5938,4.5938,4.589,4.5888,4.5886,4.5884,4.5896,4.5898,4.5901,4.5959,0,0,4.5908,4.5909,0,0,0,0,0,0,0,0,4.5878,4.5882,4.5906,4.5904,4.5902,4.591,4.5918,4.5945,4.5891,4.5894,4.5886,4.5883,4.5903,4.5905,4.5912,4.5959,4.596,4.5908,4.591,4.5911,4.5912,0,0,0,0,0,0,0,4.5876,4.5881,4.5929,4.5906,4.5904,4.5891,4.5892,4.5923,4.591,4.5894,4.589,4.5893,4.5901,4.5909,4.5912,4.596,4.5908,4.591,4.5912,4.5913,4.6056,4.6058,0,0,0,0,0,0,4.5878,4.588,4.5929,4.593,4.5884,4.5894,4.5895,4.5909,4.591,4.5908,4.5894,4.589,4.5906,4.5909,4.5912,4.598,4.5911,4.5913,4.5915,4.6053,4.6056,4.6059,0,0,0,0,0,0,4.5877,4.5883,4.5929,4.5904,4.5909,4.5898,4.5914,4.5911,4.5919,4.591,4.5908,4.5905,4.5905,4.5908,4.5947,4.598,4.5914,4.5916,4.6051,4.6054,4.6057,4.6117,0,0,0,0,0,0,4.5875,4.5883,4.5905,4.5905,4.591,4.5965,4.5916,4.5913,4.5923,4.5918,4.592,4.5918,4.5903,4.5944,4.595,4.5982,4.5918,4.6048,4.6052,4.6056,4.6112,4.6122,4.6131,0,0,0,0,0,4.5873,4.5921,4.5906,4.5912,4.5938,4.5967,4.597,4.5953,4.5926,4.5948,4.5943,4.5918,4.5975,4.5949,4.5955,4.5988,4.6045,4.6051,4.6056,4.6108,4.612,4.613,0,0,0,0,0,0,4.5924,4.592,4.5904,4.5954,4.5961,4.5959,4.5986,4.5966,4.5981,4.5975,4.5953,4.5953,4.5996,4.5996,4.5966,4.6044,4.6006,4.6012,4.6043,4.6055,4.6064,4.6063,4.592,0,0,0,0,0,4.5941,4.5965,4.596,4.6005,4.6009,4.5997,4.6009,4.5995,4.6002,4.6004,4.6002,4.6008,4.6028,4.6041,4.6058,4.6112,4.6111,4.6137,4.6147,4.6154,4.6161,4.6189,4.6201,4.6076,4.6076,4.6076,0,0,4.5977,4.5978,4.5994,4.6015,4.6019,4.6044,4.6,4.6028,4.6047,4.6008,4.6045,4.6044,4.6049,4.6096,4.6116,4.6097,4.6195,4.6161,4.6167,4.6169,4.6196,4.6207,4.6218,4.6079,4.6079,4.6078,0,0,4.6055,4.6058,4.6095,4.61,4.6107,4.6099,4.6108,4.6109,4.6107,4.6144,4.6116,4.6136,4.6171,4.6176,4.6183,4.6264,4.6241,4.627,4.6318,4.6346,4.6356,4.6365,4.6394,4.6405,4.6276,4.6276,4.6276,0,4.6098,4.6135,4.6117,4.6147,4.6157,4.6125,4.6162,4.6168,4.618,4.6187,4.6165,4.6208,4.6209,4.6257,4.6277,4.6283,4.6293,4.627,4.6356,4.6365,4.6373,4.64,4.6411,4.628,4.6279,4.6279,4.6279,0,4.6188,4.6215,4.6244,4.6258,4.6271,4.6305,4.6291,4.6306,4.6291,4.6285,4.6324,4.6324,4.6342,4.6352,4.6337,4.6398,4.6385,4.636,4.6321,4.6388,4.6414,4.6424,4.6285,4.6283,4.6282,4.6281,0,0,4.6299,4.6302,4.6313,4.6319,4.6325,4.6344,4.6377,4.6394,4.6408,4.6417,4.6444,4.6474,4.6451,4.6459,4.6445,4.6469,4.6534,4.6441,4.6441,4.6459,4.6601,4.662,4.6632,4.6519,4.6521,4.6522,4.66,0,4.6376,4.6432,4.6417,4.6473,4.6497,4.6466,4.6494,4.65,4.6495,4.6515,4.6509,4.6531,4.6499,4.6503,4.6526,4.6521,4.6562,4.6515,4.6543,4.6544,4.6543,4.6646,4.6666,4.674,4.661,4.6612,4.6613,0,4.6473,4.6488,4.6546,4.6548,4.6558,4.6583,4.6599,4.6617,4.6624,4.6618,4.6628,4.6609,4.664,4.6601,4.6644,4.6612,4.6623,4.6622,4.6624,4.6626,4.6583,4.6651,4.6763,4.6774,4.6628,4.6627,4.6626,0,4.6549,4.6583,4.6622,4.6628,4.6631,4.665,4.6652,4.6656,4.6668,4.6681,4.6688,4.6704,4.6713,4.6726,4.6712,4.6684,4.6757,4.6716,4.6753,4.6754,4.677,4.6769,4.6886,4.6776,4.6776,4.6776,4.6776,0,4.6637,4.6674,4.6656,4.6681,4.6722,4.6703,4.6744,4.6742,4.6746,4.6769,4.6743,4.6765,4.6745,4.6765,4.6754,4.6791,4.6795,4.6792,4.6788,4.6794,4.6795,4.6801,4.6796,4.6779,4.6778,4.6778,4.6777,0,4.6728,4.6718,4.6759,4.6759,4.676,4.679,4.6789,4.6812,4.6805,4.6835,4.6841,4.683,4.6853,4.6839,4.6862,4.6855,4.6904,4.6893,4.6902,4.6899,4.6937,4.6934,4.7062,4.7078,4.6958,4.6959,4.696,0,4.6785,4.6814,4.6817,4.6831,4.6835,4.6858,4.687,4.6852,4.6866,4.6875,4.6897,4.6917,4.6933,4.697,4.6964,4.6981,4.6971,4.7015,4.6973,4.6979,4.6972,4.6971,4.6974,4.7023,4.7025,4.7026,4.7027,0,4.6888,4.6882,4.6901,4.6918,4.6934,4.6946,4.6956,4.6969,4.6952,4.6968,4.6992,4.7004,4.7027,4.7048,4.7063,4.7064,4.7043,4.704,4.7049,4.7056,4.706,4.7059,4.6925,4.7037,4.7036,4.7035,4.7034,4.7034,4.6964,4.6988,4.6994,4.7016,4.7022,4.7033,4.7054,4.705,4.707,4.7088,4.7076,4.7104,4.7109,4.7127,4.7131,4.7152,4.7134,4.7148,4.7152,4.7155,4.7161,4.7057,4.7154,4.7154,4.7154,4.7154,4.7153,0,4.7066,4.7069,4.7089,4.7105,4.7122,4.7101,4.7111,4.7127,4.7152,4.7159,4.7175,4.7202,4.7222,4.7218,4.7236,4.7253,4.7244,4.7259,4.7257,4.7258,4.7175,4.7166,4.7266,4.7266,4.7266,4.7266,4.7266,4.7266,4.7121,4.7161,4.7155,4.7197,4.7199,4.7226,4.7234,4.7243,4.7249,4.728,4.7297,4.7294,4.7297,4.7315,4.7332,4.7331,4.7339,4.7357,4.7352,4.7275,4.7264,4.7253,4.7244,4.7359,4.7359,4.7433,4.7433,4.7434]}]]